Location: Gaast
(52.9002°N, 5.8891°E)
Time: 09:34:07
(UTC+00:00)

IRAS Rocket - Pass Details

Date: 18 November 2025
Orbit: 845 x 876 km, 100.1° (Epoch: 12 December)

Event Time Altitude Azimuth Distance (km) Brightness Sun altitude
Rises 17:36:12 0° 156° (SSE) 3,436 7.2 -17.5°
Reaches altitude 10° 17:38:35 10° 155° (SSE) 2,498 6.5 -17.9°
Maximum altitude 17:44:07 81° 69° (ENE) 876 4.1 -18.7°
Drops below altitude 10° 17:49:40 10° 344° (NNW) 2,495 6.8 -19.5°
Sets 17:52:02 0° 343° (NNW) 3,431 7.5 -19.9°
